Hourly Weather Ottawa

Today, 1 October, Thursday

Time Temperature Precipitation Wind Pressure Humidity
00:00 +9°C° 0 mm 2 mps 743 mmHg 95%
01:00 +9°C° 0 mm 2 mps 743 mmHg 95%
02:00 +8°C° 0 mm 2 mps 743 mmHg 95%
03:00 +8°C° 0 mm 2 mps 743 mmHg 95%
04:00 +8°C° 0 mm 2 mps 743 mmHg 95%
05:00 +8°C° 0 mm 2 mps 744 mmHg 95%
06:00 +9°C° 0 mm 2 mps 745 mmHg 95%
07:00 +9°C° 0 mm 2 mps 745 mmHg 95%
08:00 +11°C° 0 mm 3 mps 745 mmHg 88%
09:00 +13°C° 0 mm 4 mps 746 mmHg 81%
10:00 +14°C° 0 mm 4 mps 746 mmHg 74%
11:00 +15°C° 0.2 mm 5 mps 746 mmHg 70%
12:00 +16°C° 0.2 mm 5 mps 747 mmHg 65%
13:00 +17°C° 0.2 mm 5 mps 747 mmHg 61%
14:00 +17°C° 0.4 mm 4 mps 747 mmHg 66%
15:00 +17°C° 0.4 mm 4 mps 747 mmHg 71%
16:00 +16°C° 0.4 mm 3 mps 747 mmHg 76%
17:00 +13°C° 0.4 mm 3 mps 748 mmHg 81%
18:00 +13°C° 0.4 mm 2 mps 749 mmHg 86%
19:00 +10°C° 0.4 mm 2 mps 749 mmHg 92%
20:00 +10°C° 0 mm 2 mps 750 mmHg 92%
21:00 +9°C° 0 mm 2 mps 750 mmHg 93%
22:00 +8°C° 0 mm 2 mps 750 mmHg 94%
23:00 +8°C° 0 mm 2 mps 750 mmHg 94%

Tomorrow, 2 October, Friday

Time Temperature Precipitation Wind Pressure Humidity
00:00 +7°C° 0 mm 2 mps 751 mmHg 94%
01:00 +7°C° 0 mm 2 mps 751 mmHg 94%
02:00 +6°C° 0 mm 2 mps 751 mmHg 94%
03:00 +6°C° 0 mm 2 mps 751 mmHg 94%
04:00 +6°C° 0 mm 2 mps 751 mmHg 94%
05:00 +6°C° 0 mm 2 mps 751 mmHg 93%
06:00 +7°C° 0 mm 2 mps 751 mmHg 92%
07:00 +7°C° 0 mm 2 mps 752 mmHg 92%
08:00 +8°C° 0 mm 2 mps 752 mmHg 89%
09:00 +9°C° 0 mm 2 mps 752 mmHg 86%
10:00 +10°C° 0 mm 2 mps 752 mmHg 83%
11:00 +12°C° 0 mm 2 mps 752 mmHg 80%
12:00 +12°C° 0 mm 2 mps 752 mmHg 77%
13:00 +12°C° 0 mm 3 mps 752 mmHg 74%
14:00 +13°C° 0 mm 2 mps 752 mmHg 71%
15:00 +14°C° 0 mm 2 mps 752 mmHg 68%
16:00 +14°C° 0 mm 2 mps 752 mmHg 65%
17:00 +12°C° 0 mm 2 mps 752 mmHg 68%
18:00 +10°C° 0 mm 2 mps 753 mmHg 72%
19:00 +8°C° 0 mm 3 mps 754 mmHg 75%
20:00 +8°C° 0 mm 2 mps 754 mmHg 75%
21:00 +7°C° 0 mm 2 mps 754 mmHg 75%
22:00 +7°C° 0 mm 2 mps 755 mmHg 75%
23:00 +7°C° 0 mm 1 mps 755 mmHg 77%

Day after tomorrow, 3 October, Saturday

Time Temperature Precipitation Wind Pressure Humidity
00:00 +6°C° 0 mm 1 mps 755 mmHg 80%
01:00 +5°C° 0 mm 1 mps 755 mmHg 82%
02:00 +5°C° 0 mm 1 mps 755 mmHg 83%
03:00 +5°C° 0 mm 1 mps 755 mmHg 84%
04:00 +3°C° 0 mm 2 mps 756 mmHg 85%
05:00 +5°C° 0 mm 1 mps 756 mmHg 83%
06:00 +6°C° 0 mm 1 mps 756 mmHg 81%
07:00 +6°C° 0 mm 1 mps 757 mmHg 79%
08:00 +6°C° 0 mm 0 mps 757 mmHg 75%
09:00 +8°C° 0 mm 0 mps 757 mmHg 71%
10:00 +9°C° 0 mm 0 mps 757 mmHg 67%
11:00 +9°C° 0 mm 0 mps 757 mmHg 66%
12:00 +11°C° 0 mm 1 mps 757 mmHg 65%
13:00 +11°C° 0 mm 1 mps 757 mmHg 64%
14:00 +10°C° 0.1 mm 2 mps 757 mmHg 64%
15:00 +10°C° 0.1 mm 2 mps 757 mmHg 64%
16:00 +10°C° 0.1 mm 2 mps 757 mmHg 64%
17:00 +8°C° 0 mm 2 mps 757 mmHg 67%
18:00 +7°C° 0 mm 2 mps 757 mmHg 70%
19:00 +6°C° 0 mm 1 mps 758 mmHg 73%
20:00 +6°C° 0 mm 1 mps 758 mmHg 73%
21:00 +5°C° 0 mm 1 mps 758 mmHg 73%
22:00 +5°C° 0 mm 1 mps 759 mmHg 73%
23:00 +4°C° 0 mm 1 mps 758 mmHg 74%

4 October, Sunday

Time Temperature Precipitation Wind Pressure Humidity
00:00 +4°C° 0 mm 1 mps 758 mmHg 76%
01:00 +3°C° 0 mm 1 mps 758 mmHg 78%
02:00 +3°C° 0 mm 1 mps 758 mmHg 78%
03:00 +3°C° 0 mm 1 mps 759 mmHg 78%
04:00 +3°C° 0 mm 1 mps 759 mmHg 78%
05:00 +4°C° 0 mm 1 mps 759 mmHg 76%
06:00 +4°C° 0 mm 1 mps 759 mmHg 73%
07:00 +5°C° 0 mm 1 mps 759 mmHg 71%
08:00 +5°C° 0 mm 0 mps 759 mmHg 68%
09:00 +7°C° 0 mm 0 mps 759 mmHg 65%
10:00 +8°C° 0 mm 0 mps 759 mmHg 62%
11:00 +9°C° 0 mm 0 mps 759 mmHg 62%
12:00 +10°C° 0 mm 1 mps 759 mmHg 62%
13:00 +11°C° 0 mm 1 mps 759 mmHg 62%
14:00 +11°C° 0 mm 1 mps 758 mmHg 63%
15:00 +10°C° 0 mm 1 mps 758 mmHg 63%
16:00 +9°C° 0 mm 2 mps 758 mmHg 64%
17:00 +8°C° 0 mm 2 mps 758 mmHg 67%
18:00 +7°C° 0 mm 1 mps 759 mmHg 71%
19:00 +6°C° 0 mm 1 mps 759 mmHg 75%
20:00 +5°C° 0 mm 1 mps 760 mmHg 75%
21:00 +5°C° 0 mm 1 mps 760 mmHg 76%
22:00 +4°C° 0 mm 1 mps 760 mmHg 76%
23:00 +4°C° 0 mm 1 mps 760 mmHg 77%

5 October, Monday

Time Temperature Precipitation Wind Pressure Humidity
00:00 +3°C° 0 mm 1 mps 760 mmHg 79%
01:00 +3°C° 0 mm 1 mps 760 mmHg 80%
02:00 +2°C° 0 mm 1 mps 760 mmHg 82%
03:00 +2°C° 0 mm 1 mps 761 mmHg 83%
04:00 +1°C° 0 mm 1 mps 761 mmHg 84%
05:00 +1°C° 0 mm 0 mps 761 mmHg 83%
06:00 +1°C° 0 mm 0 mps 761 mmHg 81%
07:00 +2°C° 0 mm 0 mps 762 mmHg 80%
08:00 +4°C° 0 mm 0 mps 762 mmHg 72%
09:00 +7°C° 0 mm 1 mps 762 mmHg 64%
10:00 +10°C° 0 mm 1 mps 762 mmHg 55%
11:00 +11°C° 0 mm 1 mps 761 mmHg 53%
12:00 +12°C° 0 mm 1 mps 761 mmHg 50%
13:00 +13°C° 0 mm 1 mps 760 mmHg 48%
14:00 +13°C° 0 mm 2 mps 760 mmHg 50%
15:00 +13°C° 0 mm 2 mps 760 mmHg 52%
16:00 +13°C° 0 mm 2 mps 759 mmHg 54%
17:00 +10°C° 0 mm 2 mps 759 mmHg 59%
18:00 +8°C° 0 mm 2 mps 759 mmHg 65%
19:00 +6°C° 0 mm 2 mps 759 mmHg 70%
20:00 +5°C° 0 mm 2 mps 759 mmHg 71%
21:00 +5°C° 0 mm 2 mps 759 mmHg 73%
22:00 +4°C° 0 mm 2 mps 759 mmHg 75%
23:00 +4°C° 0 mm 2 mps 759 mmHg 76%

6 October, Tuesday

Time Temperature Precipitation Wind Pressure Humidity
00:00 +4°C° 0 mm 2 mps 758 mmHg 78%
01:00 +4°C° 0 mm 2 mps 758 mmHg 79%
02:00 +4°C° 0 mm 2 mps 758 mmHg 83%
03:00 +5°C° 0 mm 2 mps 757 mmHg 86%
04:00 +4°C° 0 mm 3 mps 757 mmHg 90%
05:00 +5°C° 0 mm 3 mps 757 mmHg 91%
06:00 +5°C° 0 mm 3 mps 756 mmHg 92%
07:00 +7°C° 0 mm 3 mps 756 mmHg 93%
08:00 +8°C° 0 mm 4 mps 755 mmHg 86%
09:00 +12°C° 0 mm 5 mps 755 mmHg 78%
10:00 +14°C° 0 mm 7 mps 754 mmHg 71%
11:00 +15°C° 0 mm 7 mps 753 mmHg 67%
12:00 +16°C° 0 mm 7 mps 753 mmHg 64%
13:00 +17°C° 0 mm 7 mps 752 mmHg 60%
14:00 +17°C° 0 mm 7 mps 751 mmHg 62%
15:00 +17°C° 0 mm 6 mps 751 mmHg 63%
16:00 +16°C° 0 mm 6 mps 750 mmHg 64%
17:00 +16°C° 0 mm 6 mps 749 mmHg 64%
18:00 +16°C° 0 mm 6 mps 749 mmHg 64%
19:00 +16°C° 0 mm 7 mps 748 mmHg 64%
20:00 +16°C° 0 mm 7 mps 748 mmHg 65%
21:00 +16°C° 0 mm 7 mps 747 mmHg 65%
22:00 +16°C° 0 mm 7 mps 747 mmHg 65%
23:00 +16°C° 0.6 mm 7 mps 746 mmHg 73%
Show more